Regional Weather Roundup
Issued by NWS

Home | Current Version | Previous Version | Text Only | Print | Product List | Glossary On
Versions: 1 2 3 4 5 6 7 8 9 10 11 12 13 14 15 16 17 18 19 20 21 22 23 24 25 26 27 28 29 30 31 32 33 34 35 36 37 38 39 40 41 42 43 44 45 46 47 48 49 50
000
ASUS46 KSEW 240810
RWRWA

WASHINGTON REGIONAL WEATHER ROUNDUP
NATIONAL WEATHER SERVICE SEATTLE WA
100 AM PDT TUE MAY 24 2016

NOTE:"FAIR" INDICATES FEW OR NO CLOUDS BELOW 12,000 FEET WITH NO
SIGNIFICANT WEATHER AND/OR OBSTRUCTIONS TO VISIBILITY.

WAZ505-507>509-240900-
SEATTLE, TACOMA, EVERETT, AND VICINITY

CITY           SKY/WX    TMP DP  RH WIND       PRES   REMARKS
EVERETT        CLOUDY    54  47  77 N5        29.96S
BOEING FIELD   CLOUDY    60  51  72 NE5       29.95S
RENTON         CLOUDY    56  50  80 CALM      29.94S
SEATAC AIRPORT CLOUDY    59  47  64 N5        29.95F
JBLM-MCCHORD   CLOUDY    57  51  81 NW2       29.94S
PUYALLUP       CLOUDY    54  52  94 CALM      29.95S
BREMERTON      CLOUDY    54  50  87 CALM      29.97F
JBLM-FT LEWIS  CLOUDY    56  51  84 SW5       29.94S
TACOMA NARROWS CLOUDY    56  47  71 CALM      29.95F
$$

WAZ001-503-506-510-514-515-240900-
NORTH INTERIOR

CITY           SKY/WX    TMP DP  RH WIND       PRES   REMARKS
BELLINGHAM     CLOUDY    57  49  74 S5        29.93S
FRIDAY HARBOR  CLOUDY    51  49  92 CALM      29.94S
EASTSOUND      PTCLDY    54  48  82 S3        29.92R
PORT ANGELES   PTCLDY    50  47  89 W6        29.95S
EDIZ HOOK      FAIR      52  49  89 W8        29.96R
PORT TOWNSEND  MOCLDY    50  48  93 CALM      29.96R
NAS WHIDBEY    CLOUDY    55  50  83 SW10      29.98S
ARLINGTON      CLOUDY    54  46  76 N3        29.97S
BURLINGTON     CLOUDY    54  50  87 CALM      29.95S
$$

WAZ020-022-039-040-504-511-512-240900-
SOUTHWEST INTERIOR

CITY           SKY/WX    TMP DP  RH WIND       PRES   REMARKS
SHELTON        CLOUDY    54  52  93 CALM      29.93S
OLYMPIA        CLOUDY    56  50  80 CALM      29.95S
CHEHALIS       CLOUDY    55  52  88 SW3       29.96S
KELSO          CLOUDY    55  48  76 W8        29.99S
VANCOUVER      MOCLDY    56  49  77 CALM      29.95S
SCAPPOOSE, OR  MOCLDY    55  49  80 N3        29.94S
PORTLAND, OR   MOCLDY    57  49  74 N6        29.95S
$$

WAZ021-516-517-240900-
WASHINGTON COAST

CITY           SKY/WX    TMP DP  RH WIND       PRES   REMARKS
FORKS          CLOUDY    50  47  89 CALM      29.97S
HOQUIAM        CLEAR     52  51  97 CALM      29.97R
ASTORIA, OR    MOCLDY    51  49  92 S5        29.97S
$$

WAZ019-023-024-040-518-519-240900-
CASCADE MOUNTAINS AND COLUMBIA GORGE

CITY           SKY/WX    TMP DP  RH WIND       PRES   REMARKS
STAMPEDE PASS  CLOUDY    40  38  93 SW5       29.93S FOG
TROUTDALE, OR  CLEAR     56  50  80 CALM      29.94S
THE DALLES, OR PTCLDY    57  45  64 NW9       29.88S
$$

WAZ026-027-041>044-520-521-240900-
EAST SLOPES

CITY           SKY/WX    TMP DP  RH WIND       PRES   REMARKS
OMAK           CLOUDY    55  45  68 NW6       29.81S
WENATCHEE      PTCLDY    56  40  55 NW10      29.85R
ELLENSBURG     PTCLDY    52  40  63 NW15      29.85S
YAKIMA         PTCLDY    57  39  51 NW5       29.85F
$$

WAZ028-034-035-240900-
COLUMBIA BASIN

CITY           SKY/WX    TMP DP  RH WIND       PRES   REMARKS
EPHRATA        CLOUDY    60  41  49 NW16      29.80S
MOSES LAKE     CLOUDY    57  45  64 N3        29.82R
PASCO          MOCLDY    54  44  69 VRB3      29.84S
HERMISTON, OR  MOCLDY    58  44  60 SW13      29.85R
$$

WAZ036>038-240900-
NORTHEAST WASHINGTON

CITY           SKY/WX    TMP DP  RH WIND       PRES   REMARKS
SPOKANE GEIGER CLOUDY    50  45  83 E5        29.86R
SPOKANE FELTS  CLOUDY    52  48  86 CALM      29.86S
FAIRCHILD AFB  CLOUDY    49  47  93 E3        29.85S
COEURDALENE,ID CLOUDY    48  45  87 CALM      29.85S
DEER PARK      CLOUDY    49  47  93 CALM      29.87R
$$

WAZ029>033-240900-
SOUTHEAST WASHINGTON

CITY           SKY/WX    TMP DP  RH WIND       PRES   REMARKS
PULLMAN        LGT RAIN  49  44  83 E9        29.89S
LEWISTON, ID   CLOUDY    52  45  77 SE5       29.86S
WALLA WALLA    MOCLDY    55  41  59 S9        29.86R
PENDLETON, OR  MOCLDY    55  41  59 SW9       29.86S
$$



USA.gov is the U.S. government's official web portal to all federal, state and local government web resources and services.